Regional Weather Roundup
Issued by NWS

Home | Current Version | Previous Version | Graphics & Text | Print | Product List | Glossary Off
Versions: 1 2 3 4 5 6 7 8 9 10 11 12 13 14 15 16 17 18 19 20 21 22 23 24 25 26 27 28 29 30 31 32 33 34 35 36 37 38 39 40 41 42 43 44 45 46 47 48 49 50

099
ASUS43 KMKX 181800
RWRWI

WISCONSIN REGIONAL WEATHER ROUNDUP
NATIONAL WEATHER SERVICE MILWAUKEE/SULLIVAN WI
1200 PM CST SAT NOV 18 2017

NOTE: "FAIR" INDICATES FEW OR NO CLOUDS BELOW 12,000 FEET WITH NO
SIGNIFICANT WEATHER AND/OR OBSTRUCTIONS TO VISIBILITY.

WIZ001-002-006>008-014>016-023>028-181900-
NORTHWEST WISCONSIN

CITY           SKY/WX    TMP DP  RH WIND       PRES   REMARKS
SUPERIOR ARPT  CLOUDY    30  20  66 NW9       29.81S WCI  21
6HR MIN TEMP:  26; 6HR MAX TEMP:  31;

ASHLAND        CLOUDY    32  26  78 NW9       29.75S WCI  24
6HR MIN TEMP:  31; 6HR MAX TEMP:  34;

HAYWARD        PTSUNNY   33  24  69 VRB7      29.74F WCI  27
6HR MIN TEMP:  30; 6HR MAX TEMP:  33;

SIREN          SUNNY     32  20  63 NW12      29.80S WCI  23
CUMBERLAND     SUNNY     32  23  69 NW13G20   29.75R WCI  22
RICE LAKE      SUNNY     34  26  71 N10G17    29.76S WCI  26
CHETEK         PTSUNNY   33  29  82 NW6       29.74F WCI  28
LADYSMITH      CLOUDY    35  29  80 N12G17    29.73S WCI  26
EAU CLAIRE     MOSUNNY   37  28  70 NW13G23   29.73S WCI  29
MENOMONIE      SUNNY     38  29  71 NW12      29.75S WCI  30
NEW RICHMOND   MOSUNNY   33  24  70 NW16G22   29.80R WCI  23
OSCEOLA        MOSUNNY   33  22  65 NW12G17   29.84R WCI  24
$$

WIZ003>005-009-010-017-018-181900-
NORTH CENTRAL WISCONSIN

CITY           SKY/WX    TMP DP  RH WIND       PRES   REMARKS
MANITOWISH WTR CLOUDY    31  31 100 NW5       29.65F WCI  27
ARBOR VITAE    MOSUNNY   34  32  92 N7G13     29.64S WCI  28
WOODRUFF       MOSUNNY   34  32  92 N7G13     29.64S WCI  28
RHINELANDER    CLOUDY    33  30  88 MISG      29.65R
6HR MIN TEMP:  32; 6HR MAX TEMP:  33;

EAGLE RIVER    CLOUDY    32  30  92 N9        29.63S WCI  24
6HR MIN TEMP:  32; 6HR MAX TEMP:  32;

LAND O LAKES   CLOUDY    32  30  93 N8        29.65F WCI  25
PHILLIPS       CLOUDY    32  29  87 N9        29.68R WCI  24
6HR MIN TEMP:  32; 6HR MAX TEMP:  32;

TOMAHAWK       CLOUDY    33  29  88 NW6       29.66S WCI  27
MEDFORD        CLOUDY    33  29  87 N10G17    29.66R WCI  25
MERRILL        CLOUDY    35  31  86 N10       29.66R WCI  27
6HR MIN TEMP:  34; 6HR MAX TEMP:  35;

$$

WIZ029-030-035-036-043>047-181900-
CENTRAL WISCONSIN

CITY           SKY/WX    TMP DP  RH WIND       PRES   REMARKS
WAUSAU         CLOUDY    35  29  78 N9        29.64S WCI  28
6HR MIN TEMP:  34; 6HR MAX TEMP:  35;

MOSINEE        CLOUDY    36  32  87 N13       29.65S WCI  27
MARSHFIELD     CLOUDY    36  30  79 N12       29.66S WCI  28
6HR MIN TEMP:  34; 6HR MAX TEMP:  36;

STEVENS POINT  CLOUDY    35  32  88 N10G18    29.65R WCI  27
WAUPACA        CLOUDY    40  33  77 N15G21    29.63S WCI  31
WAUTOMA        CLOUDY    38  32  79 N13       29.64S WCI  30
6HR MIN TEMP:  35; 6HR MAX TEMP:  38;

WISC RAPIDS    CLOUDY    38  31  76 N15       29.67R WCI  29
6HR MIN TEMP:  35; 6HR MAX TEMP:  38;

CAMP DOUGLAS   NOT AVBL
$$

WIZ011>013-019>022-031-037>040-048>050-181900-
NORTHEAST WISCONSIN

CITY           SKY/WX    TMP DP  RH WIND       PRES   REMARKS
ANTIGO         CLOUDY    33  30  91 N14       29.63R WCI  23
SHAWANO        CLOUDY    39  33  80 NW9       29.63R WCI  33
6HR MIN TEMP:  37; 6HR MAX TEMP:  39;

OCONTO         CLOUDY    38  33  80 NW9G17    29.60S WCI  32
STURGEON BAY   CLOUDY    39  35  86 N16G25    29.57S WCI  30
6HR MIN TEMP:  37; 6HR MAX TEMP:  39; 6HR PCP: TRACE;

GREEN BAY      CLOUDY    39  35  86 N14       29.60S WCI  31
6HR MIN TEMP:  36; 6HR MAX TEMP:  39;

MANITOWOC      CLOUDY    39  35  86 N15G22    29.56F WCI  31
6HR MIN TEMP:  37; 6HR MAX TEMP:  39; 6HR PCP: TRACE;

APPLETON       CLOUDY    37  34  87 N12       29.59S WCI  30
CLINTONVILLE   CLOUDY    37  32  81 N10       29.63R WCI  30
OSHKOSH        CLOUDY    38  33  82 N14G23    29.60R WCI  30
6HR MIN TEMP:  36; 6HR MAX TEMP:  38;

$$

WIZ032>034-041-042-053>061-181900-
SOUTHWEST WISCONSIN

CITY           SKY/WX    TMP DP  RH WIND       PRES   REMARKS
LA CROSSE      PTSUNNY   41  32  70 NW10      29.73R
6HR MIN TEMP:  37; 6HR MAX TEMP:  41;

SPARTA         CLOUDY    37  32  84 N12       29.72R WCI  29
VIROQUA        CLOUDY    36  34  93 N12G17    29.69R WCI  28
6HR MIN TEMP:  34; 6HR MAX TEMP:  36;

BOSCOBEL       CLOUDY    39  33  79 NW12      29.71R WCI  32
6HR MIN TEMP:  38; 6HR MAX TEMP:  39; 6HR PCP:  0.03;

PRAIRIE DU CHI CLOUDY    38  32  78 NW14G23   29.72R WCI  30
PLATTEVILLE    CLOUDY    37  37 100 NW20G25   29.67R WCI  27
$$

WIZ056-057-062-063-064-067-068-181900-
SOUTH CENTRAL WISCONSIN

CITY           SKY/WX    TMP DP  RH WIND       PRES   REMARKS
REEDSBURG      CLOUDY    36  34  95 NW12G18   29.66R WCI  27
BARABOO/DELLS  CLOUDY    36  34  92 NW12G21   29.64R WCI  28
LONE ROCK      CLOUDY    38  35  89 NW12G22   29.68R WCI  30
MINERAL POINT  CLOUDY    36  36 100 NW17G23   29.64R WCI  25
MADISON        CLOUDY    37  34  89 N16G28    29.61S WCI  28
6HR MIN TEMP:  32; 6HR MAX TEMP:  37; 6HR PCP:  0.10;

MIDDLETON      CLOUDY    38  37  94 N14       29.62R WCI  30
WATERTOWN      CLOUDY    37  37  98 N17G24    29.56R WCI  27
MONROE         CLOUDY    36  34  93 N18G24    29.59R WCI  25
JANESVILLE     CLOUDY    37  37 100 N15G21    29.56R WCI  28
$$

WIZ051-052-058>065-066-070>072-181900-
SOUTHEAST WISCONSIN

CITY           SKY/WX    TMP DP  RH WIND       PRES   REMARKS
MILWAUKEE      CLOUDY    39  36  89 N17G29    29.50F WCI  30
6HR MIN TEMP:  35; 6HR MAX TEMP:  40; 6HR PCP:  0.16;

WAUKESHA       LGT RAIN  36  34  93 N15G23    29.54F WCI  26
MILWAUKEE/TIMM CLOUDY    37  34  87 N16G24    29.53F WCI  28
RACINE         LGT RAIN  37  35  92 N17G24    29.51F WCI  27
6HR MIN TEMP:  35; 6HR MAX TEMP:  41; 6HR PCP:  0.19;

BURLINGTON     MIX PCPN  37  37 100 N15G21    29.52S WCI  28
KENOSHA        CLOUDY    36  34  92 N12G22    29.50S WCI  28
6HR MIN TEMP:  34; 6HR MAX TEMP:  41; 6HR PCP:  0.15;

FOND DU LAC    CLOUDY    39  33  79 N14       29.60S WCI  31
6HR MIN TEMP:  36; 6HR MAX TEMP:  39; 6HR PCP:  0.03;

SHEBOYGAN      CLOUDY    38  36  92 N14G23    29.55F WCI  30
6HR MIN TEMP:  36; 6HR MAX TEMP:  38; 6HR PCP:  0.02;

WEST BEND      CLOUDY    36  36 100 N13G18    29.54F WCI  27
JUNEAU         CLOUDY    36  33  91 N12G22    29.59R WCI  28
$$

LSZ147-162-181900-
LAKE SUPERIOR

STATION/POSITION TIME  TEMP    WIND        PRES    WAVE
                       AIR SEA DIR/SP/G            HT/PER
                 (UTC) (F)     (DEG/KT/KT) (MB)    (FT/S)
DEVILS ISLAND    1700   31     310/ 12/ 14 1008.2S
SAXON HARBOR     1740   35     300/ 10/ 13 1006.4S
$$

LMZ867-665-643>646-181900-
LAKE MICHIGAN

STATION/POSITION TIME  TEMP    WIND        PRES    WAVE
                       AIR SEA DIR/SP/G            HT/PER
                 (UTC) (F)     (DEG/KT/KT) (MB)    (FT/S)
N MID LAKE BUOY  1650   41 48   10/ 17/ 21 1001.5F   4/ 5
NORTHPORT PIER   1740   41     340/ 19/ 24 1001.0F
SHEBOYGAN LAKESH 1700   38     340/ 19/ 22 1001.1F
PORT WASHINGTON  1730   39     340/ 10/ 17 1001.4F
MILWAUKEE LAKESH 1730   38     340/ 12/ 17   N/A
S MID LAKE BUOY  1650   43 49   10/ 27/ 31  996.8F   5/ 5
KENOSHA   LAKESH 1700   36     340/ 17/ 21  999.3
$$

TC  - TEMPERATURE IN CELSIUS
VSB - VISIBILITY IN STATUTE MILES
WCI - WIND CHILL INDEX
HX  - HEAT INDEX





USA.gov is the U.S. government's official web portal to all federal, state and local government web resources and services.